User: anonymous   Login
Location: Unspecified
(0.0000°N, 0.0000°E)
Time: 20:14:21
(UTC+00:00)
Language:

STARLINK-34462 - Orbit

View from above orbital plane
View from above orbital plane
View from above satellite
View from above satellite

Ground track
Ground track

The orbit is defined by the following mean orbital elements,

1 64493U          26145.24977272 +.00000000 +00000-0 +73116-3 0 00008
2 64493  53.1603 118.7988 0001392  75.1338 284.9819 15.35398063    04
Epoch (UTC): 25 May 2026 05:59:40
Eccentricity: 0.0001392
inclination: 53.1603°
perigee height: 459 km
apogee height: 461 km
right ascension of ascending node: 118.7988°
argument of perigee: 75.1338°
revolutions per day: 15.35398063
mean anomaly at epoch: 284.9819°

The dashed part of the orbit path shows where the satellite is in the earth's shadow,  

DLR